Location: Jackson Park
(37.2862°N, 79.9123°W)
Time: 14:10:24
(UTC+00:00)

Vanguard 3 - Pass Details

Date: 17 May 2026
Orbit: 507 x 3204 km, 33.3° (Epoch: 6 June)

Event Time Altitude Azimuth Distance (km) Brightness Sun altitude
Rises 15:49:18 0° 207° (SSW) 5,548 11.5 64.0°
Reaches altitude 10° 15:53:01 10° 198° (SSW) 4,893 11.4 64.6°
Maximum altitude 16:06:04 35° 139° (SE) 4,065 11.9 66.5°
Drops below altitude 10° 16:22:19 10° 83° (E) 6,120 11.9 68.6°
Sets 16:27:37 0° 76° (ENE) 7,061 12.0 69.3°
